{"data":{"norad_id":47748,"epoch":"2026-07-12T22:56:24.559584Z","epoch_age_seconds":6034299,"freshness":"OLD","line1":"1 47748U 21017AC  26193.95583981  .04767012  12174-4  84363-3 0  9993","line2":"2 47748  53.1391 293.8157 0012207 318.7694  41.2428 16.31693497297692","mean_motion":16.31693497,"eccentricity":0.0012207,"inclination_deg":53.1391,"raan_deg":293.8157,"arg_perigee_deg":318.7694,"mean_anomaly_deg":41.2428,"bstar":0.00084363,"rev_number":29769,"period_min":88.251868543177,"perigee_km":179.97736231722,"apogee_km":196.00791121242,"semimajor_km":6566.1296367648,"source":"CELESTRAK","updated_at":"2026-07-13T09:00:41.733664Z"}}